When you browse on this site, cookies collect data to enhance your experience and personalize the content and advertising you see.
Visit our Privacy Policy to learn more. By continuing to use the site, you agree to this use of cookies and data.
  • In Hungary
  • List of Countries
  • For 7 days
  • Water Temperature
  • Weather Map
  • News
  • Weather Widgets
  • user-avatar
    Login

    Hourly Weather Ladenkovo

    Today, 20 January, Monday

    Time Temperature Precipitation Wind Pressure Humidity
    00:00 0°C° 0 mm 5 mps 752 mmHg 89%
    01:00 0°C° 0 mm 4 mps 753 mmHg 87%
    02:00 0°C° 0 mm 4 mps 753 mmHg 85%
    03:00 0°C° 0 mm 4 mps 753 mmHg 87%
    04:00 0°C° 0 mm 4 mps 752 mmHg 89%
    05:00 0°C° 0 mm 4 mps 752 mmHg 90%
    06:00 0°C° 0 mm 4 mps 752 mmHg 92%
    07:00 0°C° 0 mm 4 mps 753 mmHg 94%
    08:00 0°C° 0 mm 4 mps 753 mmHg 95%
    09:00 0°C° 0.1 mm 5 mps 753 mmHg 93%
    10:00 0°C° 0.1 mm 5 mps 753 mmHg 92%
    11:00 0°C° 0.1 mm 5 mps 753 mmHg 90%
    12:00 0°C° 0 mm 5 mps 753 mmHg 92%
    13:00 -1°C° 0 mm 5 mps 753 mmHg 93%
    14:00 -1°C° 0 mm 5 mps 753 mmHg 94%
    15:00 -1°C° 0 mm 5 mps 752 mmHg 94%
    16:00 -1°C° 0 mm 5 mps 752 mmHg 93%
    17:00 -1°C° 0 mm 5 mps 751 mmHg 92%
    18:00 -1°C° 0 mm 5 mps 751 mmHg 88%
    19:00 -1°C° 0 mm 5 mps 751 mmHg 84%
    20:00 -1°C° 0 mm 5 mps 751 mmHg 80%
    21:00 -1°C° 0 mm 5 mps 750 mmHg 80%
    22:00 -1°C° 0 mm 5 mps 749 mmHg 80%
    23:00 -1°C° 0 mm 5 mps 749 mmHg 80%

    Tomorrow, 21 January, Tuesday

    Time Temperature Precipitation Wind Pressure Humidity
    00:00 -1°C° 0 mm 5 mps 748 mmHg 82%
    01:00 -1°C° 0 mm 5 mps 747 mmHg 84%
    02:00 -1°C° 0 mm 5 mps 747 mmHg 86%
    03:00 -2°C° 0.2 mm 6 mps 746 mmHg 87%
    04:00 -2°C° 0.2 mm 6 mps 744 mmHg 87%
    05:00 -1°C° 0.2 mm 6 mps 743 mmHg 87%
    06:00 -1°C° 0.2 mm 6 mps 743 mmHg 87%
    07:00 +1°C° 0.2 mm 6 mps 742 mmHg 87%
    08:00 0°C° 0.2 mm 7 mps 741 mmHg 87%
    09:00 +2°C° 0 mm 6 mps 741 mmHg 87%
    10:00 +2°C° 0 mm 6 mps 740 mmHg 86%
    11:00 +3°C° 0 mm 6 mps 740 mmHg 86%
    12:00 +3°C° 0 mm 6 mps 739 mmHg 86%
    13:00 +3°C° 0 mm 5 mps 739 mmHg 86%
    14:00 +3°C° 0 mm 5 mps 738 mmHg 85%
    15:00 +3°C° 0.3 mm 5 mps 738 mmHg 87%
    16:00 +3°C° 0.3 mm 5 mps 737 mmHg 89%
    17:00 +3°C° 0.3 mm 5 mps 736 mmHg 91%
    18:00 +2°C° 0.3 mm 5 mps 736 mmHg 87%
    19:00 +2°C° 0.3 mm 6 mps 736 mmHg 83%
    20:00 +2°C° 0.3 mm 7 mps 736 mmHg 79%
    21:00 0°C° 0 mm 7 mps 736 mmHg 76%
    22:00 -1°C° 0 mm 7 mps 736 mmHg 73%
    23:00 -1°C° 0 mm 7 mps 736 mmHg 70%

    Day after tomorrow, 22 January, Wednesday

    Time Temperature Precipitation Wind Pressure Humidity
    00:00 -2°C° 0 mm 7 mps 736 mmHg 72%
    01:00 -3°C° 0 mm 6 mps 736 mmHg 73%
    02:00 -2°C° 0 mm 5 mps 736 mmHg 74%
    03:00 -2°C° 0 mm 5 mps 736 mmHg 75%
    04:00 -2°C° 0 mm 5 mps 735 mmHg 75%
    05:00 -2°C° 0 mm 5 mps 734 mmHg 76%
    06:00 -2°C° 0 mm 5 mps 734 mmHg 77%
    07:00 -2°C° 0 mm 5 mps 733 mmHg 79%
    08:00 -4°C° 0 mm 5 mps 733 mmHg 80%
    09:00 -2°C° 0.2 mm 5 mps 733 mmHg 77%
    10:00 -2°C° 0.2 mm 5 mps 733 mmHg 75%
    11:00 -2°C° 0.2 mm 5 mps 732 mmHg 72%
    12:00 -2°C° 0.1 mm 5 mps 732 mmHg 71%
    13:00 -2°C° 0.1 mm 5 mps 732 mmHg 69%
    14:00 -2°C° 0.1 mm 5 mps 732 mmHg 68%
    15:00 -4°C° 0 mm 5 mps 732 mmHg 69%
    16:00 -4°C° 0 mm 5 mps 732 mmHg 71%
    17:00 -5°C° 0 mm 5 mps 732 mmHg 73%
    18:00 -5°C° 0 mm 6 mps 733 mmHg 73%
    19:00 -5°C° 0 mm 6 mps 733 mmHg 72%
    20:00 -5°C° 0 mm 6 mps 734 mmHg 72%
    21:00 -5°C° 0 mm 6 mps 734 mmHg 71%
    22:00 -6°C° 0 mm 6 mps 735 mmHg 71%
    23:00 -8°C° 0 mm 6 mps 735 mmHg 70%

    23 January, Thursday

    Time Temperature Precipitation Wind Pressure Humidity
    00:00 -8°C° 0 mm 6 mps 736 mmHg 69%
    01:00 -8°C° 0 mm 6 mps 737 mmHg 68%
    02:00 -9°C° 0 mm 6 mps 737 mmHg 67%
    03:00 -9°C° 0 mm 6 mps 738 mmHg 66%
    04:00 -9°C° 0 mm 6 mps 738 mmHg 65%
    05:00 -9°C° 0 mm 7 mps 739 mmHg 64%
    06:00 -9°C° 0 mm 6 mps 739 mmHg 62%
    07:00 -9°C° 0 mm 6 mps 740 mmHg 60%
    08:00 -9°C° 0 mm 6 mps 741 mmHg 58%
    09:00 -9°C° 0 mm 6 mps 741 mmHg 57%
    10:00 -9°C° 0 mm 6 mps 742 mmHg 56%
    11:00 -9°C° 0 mm 6 mps 742 mmHg 55%
    12:00 -9°C° 0 mm 6 mps 743 mmHg 54%
    13:00 -9°C° 0 mm 6 mps 743 mmHg 54%
    14:00 -8°C° 0 mm 5 mps 744 mmHg 53%
    15:00 -8°C° 0 mm 4 mps 744 mmHg 56%
    16:00 -8°C° 0 mm 4 mps 744 mmHg 59%
    17:00 -8°C° 0 mm 3 mps 745 mmHg 62%
    18:00 -7°C° 0 mm 2 mps 745 mmHg 62%
    19:00 -7°C° 0 mm 2 mps 745 mmHg 62%
    20:00 -7°C° 0 mm 2 mps 744 mmHg 62%
    21:00 -6°C° 0 mm 2 mps 744 mmHg 65%
    22:00 -7°C° 0 mm 3 mps 743 mmHg 69%
    23:00 -6°C° 0 mm 3 mps 743 mmHg 73%

    24 January, Friday

    Time Temperature Precipitation Wind Pressure Humidity
    00:00 -7°C° 0.2 mm 4 mps 742 mmHg 79%
    01:00 -5°C° 0.2 mm 4 mps 741 mmHg 85%
    02:00 -6°C° 0.2 mm 5 mps 740 mmHg 92%
    03:00 -6°C° 0.3 mm 5 mps 738 mmHg 91%
    04:00 -5°C° 0.3 mm 5 mps 737 mmHg 90%
    05:00 -5°C° 0.3 mm 5 mps 736 mmHg 89%
    06:00 -4°C° 0.2 mm 5 mps 736 mmHg 90%
    07:00 -2°C° 0.2 mm 5 mps 735 mmHg 90%
    08:00 -1°C° 0.2 mm 5 mps 735 mmHg 90%
    09:00 -1°C° 0 mm 5 mps 735 mmHg 85%
    10:00 0°C° 0 mm 5 mps 735 mmHg 81%
    11:00 0°C° 0 mm 5 mps 735 mmHg 76%
    12:00 0°C° 0 mm 5 mps 736 mmHg 75%
    13:00 0°C° 0 mm 5 mps 736 mmHg 74%
    14:00 0°C° 0 mm 5 mps 736 mmHg 73%
    15:00 -1°C° 0 mm 4 mps 737 mmHg 77%
    16:00 -2°C° 0 mm 4 mps 737 mmHg 81%
    17:00 -3°C° 0 mm 4 mps 738 mmHg 85%
    18:00 -3°C° 0 mm 4 mps 738 mmHg 86%
    19:00 -2°C° 0 mm 3 mps 738 mmHg 88%
    20:00 -2°C° 0 mm 3 mps 739 mmHg 90%
    21:00 -2°C° 0 mm 3 mps 739 mmHg 90%
    22:00 -2°C° 0 mm 3 mps 739 mmHg 91%
    23:00 -2°C° 0 mm 3 mps 739 mmHg 92%

    25 January, Saturday

    Time Temperature Precipitation Wind Pressure Humidity
    00:00 -4°C° 0 mm 3 mps 739 mmHg 92%
    01:00 -3°C° 0 mm 2 mps 738 mmHg 92%
    02:00 -3°C° 0 mm 2 mps 738 mmHg 92%
    03:00 -2°C° 0 mm 2 mps 738 mmHg 92%
    04:00 -2°C° 0 mm 2 mps 738 mmHg 92%
    05:00 -2°C° 0 mm 2 mps 737 mmHg 92%
    06:00 -2°C° 0.1 mm 2 mps 737 mmHg 94%
    07:00 -2°C° 0.1 mm 2 mps 737 mmHg 95%
    08:00 -2°C° 0.1 mm 2 mps 736 mmHg 97%
    09:00 -1°C° 0.1 mm 2 mps 737 mmHg 96%
    10:00 +1°C° 0.1 mm 2 mps 737 mmHg 96%
    11:00 +2°C° 0.1 mm 2 mps 737 mmHg 96%
    12:00 +1°C° 0 mm 3 mps 737 mmHg 94%
    13:00 +2°C° 0 mm 3 mps 737 mmHg 91%
    14:00 +2°C° 0 mm 3 mps 737 mmHg 89%
    15:00 +1°C° 0 mm 3 mps 737 mmHg 90%
    16:00 +1°C° 0 mm 3 mps 738 mmHg 92%
    17:00 0°C° 0 mm 3 mps 738 mmHg 93%
    18:00 +1°C° 0 mm 2 mps 738 mmHg 93%
    19:00 +1°C° 0 mm 2 mps 739 mmHg 93%
    20:00 +1°C° 0 mm 2 mps 739 mmHg 94%
    21:00 -1°C° 0 mm 2 mps 739 mmHg 94%
    22:00 -1°C° 0 mm 2 mps 739 mmHg 95%
    23:00 -2°C° 0 mm 2 mps 739 mmHg 95%
    Show more